Torna al catalogo

ATLAS 5 CENTAUR DEB

AttivoHEO
NORAD 44895·DEBRIS·🇺🇸 United States

Lanciato Oct 17, 2018 da Cape Canaveral Space Force Station

Loading…

Prossimi Passaggi (prossime 24 ore)

TLE

AggiornatoSource: Space-Track

Epoca: Sep 10, 2026, 07:15 UTC

1 44895U 18079BJ  26253.30262840 -.00000180  00000-0  00000-0 0  9998
2 44895  13.1668  32.8091 4299994 323.1034  13.7865  1.87751695 47912

Traccia ATLAS 5 CENTAUR DEB in tempo reale con AllMySat

Download on the App Store